Simultaneous Nadir Overpasses (SNOs) Predictions

Prediction of SNOs between AQUA and METOP-A Satellite Orbit:

Table of predicted SNOs for the next 14.0 days since TLE Epoch: 2/7/2020
Index Date (AQUA) Time (AQUA) Lat,Lon (AQUA) SZA (AQUA ) Date (METOP-A) Time (METOP-A) Lat,Lon (METOP-A) SZA (METOP-A ) Distance(km) Time Diff (sec)
1 02/10/2020 12:19:59 -75.87, 164.10 89.36 02/10/2020 12:18:59 -75.88, 164.19 89.34 2.70 60
2 02/10/2020 13:09:27 75.93, -28.44 90.70 02/10/2020 13:09:38 75.92, -28.33 90.69 3.21 11
3 02/10/2020 13:59:03 -76.40, 137.71 88.77 02/10/2020 14:00:09 -76.41, 140.66 88.94 77.06 66
4 02/13/2020 07:54:15 -75.85,-129.40 90.31 02/13/2020 07:53:21 -75.85,-129.53 90.29 3.54 54
5 02/13/2020 08:43:43 75.91, 38.05 89.75 02/13/2020 08:44:00 75.90, 37.95 89.74 3.26 17
6 02/16/2020 03:28:33 -75.88, -63.05 91.24 02/16/2020 03:27:43 -75.87, -63.10 91.22 1.45 50
7 02/16/2020 04:18:01 75.94, 104.38 88.83 02/16/2020 04:18:22 75.91, 104.37 88.80 3.23 21
8 02/18/2020 23:02:51 -75.91, 3.28 92.18 02/18/2020 23:02:05 -75.89, 3.32 92.19 2.13 46
9 02/18/2020 23:52:18 75.93, 170.85 87.84 02/18/2020 23:52:44 75.93, 170.78 87.84 1.84 26
10 02/21/2020 18:37:07 -75.90, 69.75 93.21 02/21/2020 18:36:26 -75.91, 69.73 93.18 1.33 41
11 02/21/2020 19:26:35 75.97,-122.84 86.87 02/21/2020 19:27:05 75.95,-122.81 86.84 2.90 30




NCC Satellite Simultaneous Nadir Overpasses (SNOs) Prediction Service
